[[{"header":{"parameterUnit":"m.s-1","parameterCategory":1,"la1":30.2991,"la2":30.254,"lo1":-89.0895,"lo2":-89.0444,"dy":0.0017,"dx":0.0017,"nx":28,"ny":28,"refTime":"2025-04-10T09:00:00:Z","depth":0,"parameterNumber":2,"parameterNumberName":"U-component_of_WINDS"},"data":[0,0,0,0,0,0,0,0,0,0,0,0,0,0,0,0,0,0,0,0,0,0,0,0,0,0,0,0,0,0,0,0,0,0,0,0,0,0,0,0,0,0,0,0,0,0,0,0,0,0,0,0,0,0,0,0,0,0,4.4677,4.4678,0,4.4776,4.4777,4.4778,4.4681,4.4677,4.4674,4.467,4.4779,4.4786,4.4792,0,0,0,0,0,0,0,0,0,0,0,0,0,4.4411,4.4416,4.4677,4.4678,4.4679,4.4776,4.4777,4.4779,4.4682,4.4677,4.4673,4.4668,4.4777,4.4785,4.4793,0,0,0,0,0,0,0,0,0,0,0,0,0,4.452,4.4418,4.4677,4.4642,4.464,4.4776,4.4777,4.4779,4.4683,4.4677,4.4671,4.4666,4.4775,4.4784,4.4794,4.497,0,0,4.4824,4.4828,0,0,0,0,0,0,0,0,4.4514,4.453,4.4646,4.4645,4.4643,4.471,4.4723,4.4843,4.4684,4.4667,4.467,4.4663,4.4762,4.4772,4.4804,4.4975,4.498,4.4825,4.483,4.4835,4.4837,0,0,0,0,0,0,0,4.4507,4.4525,4.4716,4.4648,4.4646,4.4625,4.4634,4.4746,4.4746,4.4668,4.4661,4.4674,4.476,4.4794,4.4805,4.4981,4.4824,4.4833,4.4839,4.4843,4.5303,4.5309,0,0,0,0,0,0,4.4502,4.452,4.4713,4.4719,4.4563,4.4634,4.4644,4.4695,4.4744,4.4746,4.4679,4.4669,4.4781,4.4794,4.4809,4.5018,4.4835,4.4844,4.4849,4.5297,4.5304,4.5311,0,0,0,0,0,0,4.4496,4.452,4.4709,4.4618,4.464,4.4645,4.4702,4.47,4.4734,4.4752,4.4752,4.4714,4.4777,4.4795,4.493,4.5021,4.4848,4.4857,4.5289,4.5299,4.5308,4.5439,0,0,0,0,0,0,4.4489,4.4519,4.4584,4.462,4.4645,4.4827,4.4708,4.4706,4.475,4.4739,4.4785,4.4787,4.4773,4.4916,4.494,4.5031,4.4865,4.5281,4.5293,4.5305,4.5427,4.5452,4.5473,0,0,0,0,0,4.448,4.4619,4.4588,4.4612,4.4727,4.4832,4.4847,4.4826,4.4758,4.4825,4.4836,4.4786,4.5007,4.4931,4.4957,4.5052,4.5275,4.529,4.5304,4.5416,4.5447,4.5473,0,0,0,0,0,0,4.4596,4.4623,4.4589,4.4743,4.4786,4.4816,4.4899,4.4859,4.4924,4.4911,4.4884,4.4896,4.5038,4.5059,4.4973,4.5226,4.513,4.5151,4.5207,4.5236,4.5259,4.5252,4.4873,0,0,0,0,0,4.4639,4.4721,4.474,4.4874,4.4897,4.4895,4.494,4.492,4.4964,4.4983,4.5004,4.5052,4.5131,4.5185,4.526,4.5429,4.5438,4.5508,4.5531,4.555,4.5568,4.566,4.5691,4.5358,4.5358,4.5358,0,0,4.473,4.4755,4.4808,4.4898,4.4929,4.5016,4.4911,4.5007,4.5072,4.4998,4.5126,4.5144,4.5195,4.5348,4.5416,4.5369,4.5662,4.5568,4.5583,4.5591,4.5678,4.5709,4.5737,4.5368,4.5366,4.5365,0,0,4.494,4.4966,4.508,4.5113,4.516,4.5157,4.5185,4.5221,4.5229,4.5356,4.5303,4.5381,4.5519,4.5557,4.5595,4.5819,4.5776,4.5844,4.5967,4.6057,4.6083,4.6106,4.6186,4.6216,4.5862,4.5863,4.5863,0,4.5048,4.5174,4.5145,4.5245,4.5287,4.5221,4.5338,4.5371,4.5442,4.5474,4.5419,4.5591,4.5621,4.5782,4.5836,4.5869,4.5901,4.5839,4.6081,4.6104,4.6125,4.6202,4.6232,4.5871,4.587,4.5869,4.5868,0,4.5304,4.5393,4.548,4.5546,4.5598,4.5706,4.5696,4.5752,4.5727,4.5731,4.5862,4.5895,4.5976,4.6012,4.599,4.6171,4.614,4.6084,4.5988,4.6165,4.6237,4.6266,4.5882,4.5879,4.5877,4.5875,0,0,4.5591,4.5638,4.5671,4.57,4.5747,4.5816,4.5922,4.5998,4.6047,4.6098,4.6187,4.6305,4.6253,4.6296,4.6278,4.6356,4.6532,4.6291,4.6291,4.6335,4.6734,4.6776,4.681,4.6503,4.6509,4.6513,4.673,0,4.5802,4.5982,4.5959,4.6133,4.6215,4.6154,4.6246,4.6286,4.6293,4.6365,4.6373,4.6457,4.6382,4.6407,4.6482,4.6495,4.6612,4.6479,4.6588,4.6592,4.6577,4.6847,4.6892,4.7095,4.6757,4.6762,4.6766,0,4.6072,4.6129,4.6311,4.6344,4.6378,4.6461,4.6528,4.6598,4.6643,4.6642,4.669,4.6657,4.6766,4.6667,4.6817,4.6727,4.677,4.6783,4.6791,4.68,4.669,4.6865,4.716,4.719,4.6809,4.6806,4.6803,0,4.6263,4.6386,4.651,4.6538,4.658,4.664,4.6661,4.6699,4.6746,4.6806,4.6837,4.691,4.695,4.7008,4.6998,4.6927,4.7151,4.7051,4.7155,4.7156,4.7206,4.7203,4.7512,4.7233,4.7233,4.7232,4.7232,0,4.6502,4.6615,4.6597,4.6673,4.6799,4.6773,4.6899,4.6913,4.6948,4.7027,4.698,4.7057,4.7037,4.7114,4.7106,4.7232,4.7251,4.7255,4.7252,4.7259,4.7259,4.7288,4.7274,4.724,4.7239,4.7237,4.7236,0,4.6737,4.6729,4.686,4.6889,4.6898,4.699,4.7016,4.7089,4.7091,4.7193,4.7215,4.722,4.7307,4.7302,4.7402,4.7397,4.7552,4.7532,4.7536,4.7532,4.7636,4.7627,4.7975,4.802,4.7712,4.7715,4.7717,0,4.689,4.6975,4.7012,4.706,4.7085,4.7164,4.7211,4.7189,4.724,4.7297,4.7364,4.7446,4.7511,4.7654,4.7668,4.7745,4.7727,4.7843,4.7738,4.7743,4.7729,4.7724,4.7733,4.7864,4.7868,4.7871,4.7873,0,4.7162,4.7153,4.7221,4.7288,4.7344,4.7397,4.7444,4.7488,4.7471,4.7531,4.7618,4.7668,4.7769,4.7852,4.7925,4.7949,4.791,4.7906,4.7934,4.7943,4.7942,4.7944,4.7593,4.7898,4.7896,4.7894,4.7892,4.7891,4.7361,4.7434,4.7471,4.7548,4.7581,4.7626,4.7696,4.7706,4.7777,4.7855,4.7839,4.7937,4.7981,4.8073,4.8105,4.8183,4.8142,4.8182,4.8193,4.8203,4.8215,4.7929,4.8196,4.8196,4.8195,4.8194,4.8194,0,4.7631,4.7651,4.7722,4.7789,4.785,4.7804,4.7855,4.791,4.7996,4.8038,4.8102,4.8203,4.8284,4.8303,4.8381,4.844,4.8424,4.8461,4.8457,4.8464,4.8248,4.8216,4.8473,4.8473,4.8473,4.8473,4.8473,4.8473,4.7779,4.79,4.7896,4.8033,4.8053,4.8147,4.818,4.8222,4.8255,4.8369,4.8434,4.8445,4.8479,4.8559,4.8631,4.8635,4.8667,4.8711,4.8708,4.8507,4.8479,4.8452,4.8422,4.8718,4.8719,4.8917,4.8919,4.8921]},{"header":{"parameterUnit":"m.s-1","parameterCategory":1,"la1":30.2991,"la2":30.254,"lo1":-89.0895,"lo2":-89.0444,"dy":0.0017,"dx":0.0017,"nx":28,"ny":28,"refTime":"2025-04-10T09:00:00:Z","depth":0,"parameterNumber":3,"parameterNumberName":"V-component_of_WINDS"},"data":[0,0,0,0,0,0,0,0,0,0,0,0,0,0,0,0,0,0,0,0,0,0,0,0,0,0,0,0,0,0,0,0,0,0,0,0,0,0,0,0,0,0,0,0,0,0,0,0,0,0,0,0,0,0,0,0,0,0,1.8293,1.8294,0,1.8373,1.8374,1.8375,1.8356,1.8355,1.8353,1.8352,1.8434,1.8438,1.8441,0,0,0,0,0,0,0,0,0,0,0,0,0,1.8125,1.8129,1.8293,1.8294,1.8295,1.8373,1.8374,1.8375,1.8356,1.8355,1.8353,1.8351,1.8433,1.8437,1.8441,0,0,0,0,0,0,0,0,0,0,0,0,0,1.8201,1.813,1.8293,1.8295,1.8296,1.8373,1.8374,1.8375,1.8357,1.8355,1.8352,1.835,1.8431,1.8437,1.8442,1.8521,0,0,1.8459,1.8461,0,0,0,0,0,0,0,0,1.8197,1.8207,1.8294,1.8295,1.8296,1.8352,1.8345,1.8424,1.8357,1.8334,1.8352,1.8349,1.8409,1.8416,1.8436,1.8525,1.8529,1.8459,1.8462,1.8465,1.8466,0,0,0,0,0,0,0,1.8192,1.8204,1.8325,1.8295,1.8297,1.8292,1.8301,1.836,1.8383,1.8336,1.8335,1.8344,1.8409,1.8431,1.8438,1.853,1.8459,1.8464,1.8467,1.8469,1.8689,1.8691,0,0,0,0,0,0,1.8185,1.8199,1.8322,1.8327,1.824,1.8297,1.8307,1.8337,1.8382,1.8387,1.8346,1.8343,1.8423,1.8431,1.844,1.8537,1.8465,1.847,1.8473,1.8686,1.8689,1.8692,0,0,0,0,0,0,1.8182,1.8196,1.8319,1.8263,1.8278,1.8303,1.8337,1.8339,1.8361,1.839,1.8394,1.8364,1.8421,1.8433,1.8501,1.8539,1.8472,1.8477,1.8683,1.8687,1.8691,1.873,0,0,0,0,0,0,1.8177,1.8195,1.8225,1.8264,1.8281,1.8378,1.8339,1.8343,1.837,1.8367,1.8408,1.8413,1.842,1.8493,1.8507,1.8546,1.8481,1.868,1.8685,1.8689,1.8725,1.8734,1.8742,0,0,0,0,0,1.8171,1.8233,1.8227,1.8242,1.832,1.8381,1.8391,1.8398,1.8374,1.8404,1.8423,1.8411,1.8533,1.8501,1.8516,1.8556,1.8677,1.8683,1.8689,1.8721,1.8732,1.8742,0,0,0,0,0,0,1.8199,1.8238,1.8232,1.8308,1.8341,1.8377,1.8416,1.841,1.845,1.8446,1.8453,1.8462,1.8532,1.8551,1.8514,1.8636,1.8602,1.8611,1.8621,1.8632,1.864,1.8635,1.8486,0,0,0,0,0,1.8214,1.826,1.8292,1.8356,1.8373,1.8392,1.8419,1.8421,1.8456,1.847,1.8494,1.8528,1.8574,1.8604,1.8648,1.8727,1.8736,1.8763,1.8772,1.8778,1.8786,1.883,1.8843,1.8711,1.8711,1.8711,0,0,1.8245,1.8272,1.8301,1.8362,1.8388,1.8436,1.8404,1.8456,1.8491,1.8478,1.8544,1.8563,1.8601,1.8676,1.871,1.8694,1.8825,1.8786,1.8791,1.8795,1.8838,1.885,1.8861,1.8715,1.8714,1.8714,0,0,1.8327,1.8352,1.8409,1.8435,1.8475,1.8487,1.85,1.8538,1.855,1.8616,1.8607,1.865,1.8729,1.8757,1.8781,1.8874,1.8865,1.8888,1.8933,1.8976,1.8986,1.8995,1.9029,1.9041,1.8896,1.8896,1.8896,0,1.8361,1.8433,1.8438,1.8492,1.8519,1.8509,1.8566,1.8592,1.8644,1.8663,1.8644,1.8743,1.8768,1.8849,1.8872,1.8892,1.8908,1.8883,1.8984,1.8994,1.9002,1.9034,1.9047,1.8898,1.8898,1.8898,1.8897,0,1.8473,1.8523,1.8564,1.8614,1.8646,1.8701,1.8716,1.8747,1.8747,1.8762,1.883,1.886,1.8909,1.8929,1.8929,1.901,1.8999,1.8982,1.8948,1.9017,1.9048,1.906,1.8902,1.8901,1.89,1.89,0,0,1.8574,1.8627,1.8642,1.8665,1.8708,1.8747,1.8802,1.885,1.8878,1.8914,1.896,1.9027,1.9012,1.904,1.9043,1.9081,1.9153,1.9059,1.906,1.9076,1.9245,1.9258,1.9272,1.9147,1.9149,1.9151,1.9242,0,1.866,1.8757,1.8764,1.8851,1.8897,1.8888,1.8936,1.8967,1.8982,1.9024,1.904,1.9088,1.9064,1.9081,1.9117,1.9136,1.9187,1.913,1.919,1.9193,1.9182,1.9287,1.9301,1.9385,1.9253,1.9255,1.9257,0,1.8773,1.8813,1.8905,1.8942,1.8961,1.9004,1.9049,1.9089,1.9125,1.9133,1.9165,1.9163,1.9219,1.9183,1.9261,1.9222,1.9247,1.926,1.9264,1.927,1.9229,1.9297,1.9412,1.9425,1.9276,1.9274,1.9273,0,1.8839,1.8915,1.898,1.9,1.9044,1.9074,1.9094,1.9128,1.9157,1.9197,1.9216,1.9261,1.9287,1.9322,1.9333,1.9305,1.9411,1.9375,1.942,1.942,1.9443,1.9441,1.9564,1.9458,1.9458,1.9458,1.9458,0,1.8934,1.8991,1.901,1.905,1.9113,1.9121,1.9183,1.9201,1.9231,1.9275,1.927,1.9311,1.9322,1.9366,1.9374,1.9438,1.9449,1.9458,1.946,1.9459,1.9458,1.9476,1.947,1.9461,1.946,1.946,1.9459,0,1.9018,1.9033,1.9103,1.9139,1.915,1.9195,1.9226,1.9265,1.9279,1.9334,1.9348,1.937,1.942,1.9435,1.9495,1.9501,1.9576,1.9572,1.9564,1.9564,1.9608,1.9604,1.9747,1.9766,1.9648,1.9649,1.965,0,1.9078,1.9121,1.9162,1.9191,1.9212,1.9259,1.9288,1.9298,1.9329,1.9373,1.9407,1.9456,1.9497,1.9578,1.96,1.9646,1.9644,1.9691,1.9651,1.9649,1.9645,1.9643,1.9647,1.9698,1.97,1.9701,1.9702,0,1.9183,1.9188,1.9231,1.9277,1.9312,1.9348,1.9383,1.9407,1.9422,1.9457,1.9509,1.954,1.9602,1.9652,1.9699,1.972,1.9714,1.9714,1.9727,1.9726,1.972,1.9725,1.9585,1.9711,1.971,1.9709,1.9709,1.9708,1.9257,1.9295,1.933,1.9378,1.9405,1.9438,1.9476,1.9495,1.9539,1.959,1.9593,1.9649,1.9684,1.9747,1.9771,1.9815,1.9801,1.9819,1.9824,1.9829,1.9833,1.9713,1.9823,1.9823,1.9823,1.9823,1.9822,0,1.9362,1.9384,1.9428,1.9477,1.9515,1.9506,1.9544,1.9576,1.9626,1.9659,1.9699,1.9759,1.9807,1.9833,1.9881,1.9912,1.991,1.9924,1.9922,1.9927,1.9842,1.9826,1.9925,1.9925,1.9925,1.9925,1.9925,1.9925,1.9421,1.9485,1.9495,1.9573,1.9595,1.965,1.9673,1.9703,1.973,1.9797,1.9837,1.9854,1.9884,1.9935,1.9979,1.9985,2.0003,2.0019,2.0024,1.9944,1.9933,1.9923,1.9908,2.0023,2.0023,2.0105,2.0106,2.0107]}]]